Weather History for Poteau, OK

Change the Weather History Date:

Thursday, January 30, 2014

  Actual Average (KFSM) Record (KFSM)
Temperature  
Mean Temperature 42 °F 41 °F  
Max Temperature 51 °F 52 °F 77 °F (1917)
Min Temperature 33 °F 30 °F 0 °F (1966)
Degree Days  
Heating Degree Days 23 24  
Month to date heating degree days 769  
Since 1 July heating degree days 2068  
Moisture  
Dew Point 25 °F    
Average Humidity 56    
Maximum Humidity 93    
Minimum Humidity 33    
Precipitation  
Precipitation 0.00 in 0.09 in 2.76 in (1982)
Month to date precipitation 2.71  
Year to date precipitation 2.71  
Sea Level Pressure  
Sea Level Pressure 29.98 in    
Wind  
Wind Speed 13 mph (South)    
Max Wind Speed 30 mph    
Max Gust Speed 43 mph    
Visibility 10 miles    
Events      
T = Trace of Precipitation, MM = Missing Value Source: NWS Daily Summary

Daily Weather History Graph

Daily Weather History Graph

Search for Another Location

Airport:

Trip Planner

Search our weather history database for the weather conditions in past years. The results will help you decide how hot, cold, wet, or windy it might be!

Date:

Astronomy

Jan. 30, 2014 Rise Set
Actual Time 7:18 AM CST 5:45 PM CST
Civil Twilight 6:52 AM CST 6:11 PM CST
Nautical Twilight 6:21 AM CST 6:42 PM CST
Astronomical Twilight 5:51 AM CST 7:12 PM CST
Moon 6:46 AM CST (1/30) 5:55 PM CST (1/30)
Length of Visible Light 11h 19m
Length of Day
10h 26m
Waning Crescent, 0% of the Moon is Illuminated
Jan 30
Waning Crescent
Jan 30
New
Feb 6
First Quarter
Feb 14
Full
Feb 22
Last Quarter

Hourly Weather History & Observations

Time (CST) Temp. Windchill Dew Point Humidity Pressure Visibility Wind Dir Wind Speed Gust Speed Precip Events Conditions
12:15 AM 33.8 °F 26.4 °F 14.0 °F 44% 30.15 in 10.0 mi SSW 9.2 mph - N/A   Unknown
12:35 AM 33.8 °F 24.8 °F 12.2 °F 41% 30.15 in 10.0 mi SSW 12.7 mph - N/A   Unknown
12:55 AM 35.6 °F 27.1 °F 14.0 °F 41% 30.15 in 10.0 mi SSW 12.7 mph - N/A   Unknown
1:15 AM 35.6 °F 26.2 °F 12.2 °F 38% 30.15 in 10.0 mi South 15.0 mph - N/A   Unknown
1:35 AM 35.6 °F 26.2 °F 12.2 °F 38% 30.15 in 10.0 mi South 15.0 mph 23.0 mph N/A   Unknown
1:55 AM 35.6 °F 26.6 °F 12.2 °F 38% 30.13 in 10.0 mi South 13.8 mph 18.4 mph N/A   Unknown
2:15 AM 35.6 °F 26.6 °F 14.0 °F 41% 30.13 in 10.0 mi South 13.8 mph 18.4 mph N/A   Unknown
2:35 AM 33.8 °F 24.3 °F 14.0 °F 44% 30.12 in 10.0 mi South 13.8 mph 17.3 mph N/A   Unknown
2:55 AM 33.8 °F 26.4 °F 14.0 °F 44% 30.11 in 10.0 mi South 9.2 mph - N/A   Unknown
3:15 AM 33.8 °F 25.3 °F 14.0 °F 44% 30.11 in 10.0 mi South 11.5 mph - N/A   Unknown
3:35 AM 35.6 °F 27.1 °F 15.8 °F 44% 30.09 in 10.0 mi South 12.7 mph - N/A   Unknown
3:55 AM 35.6 °F 26.2 °F 17.6 °F 48% 30.07 in 10.0 mi South 15.0 mph - N/A   Unknown
4:15 AM 35.6 °F 25.5 °F 15.8 °F 44% 30.05 in 10.0 mi South 17.3 mph 25.3 mph N/A   Unknown
4:35 AM 35.6 °F 26.2 °F 15.8 °F 44% 30.05 in 10.0 mi South 15.0 mph 23.0 mph N/A   Unknown
4:55 AM 35.6 °F 26.2 °F 17.6 °F 48% 30.03 in 10.0 mi South 15.0 mph 23.0 mph N/A   Unknown
5:15 AM 35.6 °F 26.6 °F 17.6 °F 48% 30.04 in 10.0 mi South 13.8 mph 24.2 mph N/A   Unknown
5:35 AM 35.6 °F 25.5 °F 17.6 °F 48% 30.04 in 10.0 mi South 17.3 mph 26.5 mph N/A   Unknown
5:55 AM 35.6 °F 25.5 °F 17.6 °F 48% 30.01 in 10.0 mi South 17.3 mph 25.3 mph N/A   Unknown
6:15 AM 35.6 °F 26.2 °F 17.6 °F 48% 30.03 in 10.0 mi South 15.0 mph 23.0 mph N/A   Unknown
6:35 AM 35.6 °F 27.5 °F 17.6 °F 48% 30.04 in 10.0 mi South 11.5 mph 17.3 mph N/A   Unknown
6:55 AM 35.6 °F 26.2 °F 17.6 °F 48% 30.04 in 10.0 mi South 15.0 mph 21.9 mph N/A   Unknown
7:15 AM 35.6 °F 25.2 °F 15.8 °F 44% 30.03 in 10.0 mi SSW 18.4 mph 33.4 mph N/A   Unknown
7:35 AM 35.6 °F 24.0 °F 17.6 °F 48% 30.01 in 10.0 mi South 23.0 mph 26.5 mph N/A   Unknown
7:55 AM 35.6 °F 25.2 °F 15.8 °F 44% 30.01 in 10.0 mi South 18.4 mph 24.2 mph N/A   Unknown
8:15 AM 35.6 °F 25.2 °F 15.8 °F 44% 30.01 in 10.0 mi South 18.4 mph 23.0 mph N/A   Unknown
8:35 AM 37.4 °F 27.2 °F 15.8 °F 41% 30.01 in 10.0 mi SSW 19.6 mph 28.8 mph N/A   Unknown
8:55 AM 37.4 °F 25.2 °F 14.0 °F 38% 30.00 in 10.0 mi SSW 28.8 mph 36.8 mph N/A   Unknown
9:15 AM 41.0 °F 30.5 °F 14.0 °F 33% 30.00 in 10.0 mi South 26.5 mph 32.2 mph N/A   Unknown
9:35 AM 41.0 °F 30.5 °F 15.8 °F 36% 29.98 in 10.0 mi South 26.5 mph 35.7 mph N/A   Unknown
9:55 AM 41.0 °F 29.8 °F 17.6 °F 39% 29.97 in 10.0 mi South 29.9 mph 42.6 mph N/A   Unknown
10:15 AM 41.0 °F 30.0 °F 21.2 °F 45% 29.98 in 10.0 mi South 28.8 mph 41.4 mph N/A   Unknown
10:35 AM 42.8 °F 33.1 °F 23.0 °F 46% 29.97 in 10.0 mi South 25.3 mph 34.5 mph N/A   Unknown
10:55 AM 42.8 °F 34.0 °F 26.6 °F 53% 29.98 in 10.0 mi South 20.7 mph 31.1 mph N/A   Unknown
11:15 AM 44.6 °F 36.4 °F 28.4 °F 53% 29.97 in 10.0 mi South 20.7 mph 33.4 mph N/A   Unknown
11:35 AM 44.6 °F 36.9 °F 28.4 °F 53% 29.97 in 10.0 mi South 18.4 mph 27.6 mph N/A   Unknown
11:55 AM 44.6 °F 37.2 °F 30.2 °F 57% 29.95 in 10.0 mi South 17.3 mph 27.6 mph N/A   Unknown
12:15 PM 44.6 °F 36.1 °F 30.2 °F 57% 29.93 in 10.0 mi South 21.9 mph 28.8 mph N/A   Unknown
12:35 PM 46.4 °F 38.1 °F 30.2 °F 53% 29.91 in 10.0 mi South 24.2 mph 29.9 mph N/A   Unknown
12:55 PM 46.4 °F 39.0 °F 30.2 °F 53% 29.90 in 10.0 mi South 19.6 mph 31.1 mph N/A   Unknown
1:15 PM 46.4 °F 38.7 °F 32.0 °F 57% 29.90 in 10.0 mi South 20.7 mph 27.6 mph N/A   Unknown
1:35 PM 48.2 °F - 32.0 °F 54% 29.90 in 10.0 mi South 17.3 mph 24.2 mph N/A   Unknown
1:55 PM 50.0 °F - 32.0 °F 50% 29.88 in 10.0 mi South 16.1 mph - N/A   Unknown
2:15 PM 51.8 °F - 32.0 °F 47% 29.87 in 10.0 mi South 17.3 mph 21.9 mph N/A   Unknown
2:35 PM 51.8 °F - 32.0 °F 47% 29.88 in 10.0 mi South 16.1 mph 21.9 mph N/A   Unknown
2:55 PM 50.0 °F - 32.0 °F 50% 29.87 in 10.0 mi South 17.3 mph 20.7 mph N/A   Unknown
3:15 PM 51.8 °F - 32.0 °F 47% 29.87 in 10.0 mi South 11.5 mph 23.0 mph N/A   Unknown
3:35 PM 51.8 °F - 32.0 °F 47% 29.88 in 10.0 mi South 13.8 mph 19.6 mph N/A   Unknown
3:55 PM 51.8 °F - 32.0 °F 47% 29.88 in 10.0 mi South 13.8 mph 18.4 mph N/A   Unknown
4:15 PM 51.8 °F - 32.0 °F 47% 29.90 in 10.0 mi South 9.2 mph - N/A   Unknown
4:35 PM 51.8 °F - 32.0 °F 47% 29.90 in 10.0 mi South 11.5 mph - N/A   Unknown
4:55 PM 51.8 °F - 33.8 °F 50% 29.90 in 10.0 mi South 9.2 mph - N/A   Unknown
5:15 PM 48.2 °F - 32.0 °F 54% 29.90 in 10.0 mi SSE 4.6 mph - N/A   Unknown
5:35 PM 46.4 °F 45.2 °F 32.0 °F 57% 29.91 in 10.0 mi SSE 3.5 mph - N/A   Unknown
5:55 PM 44.6 °F 42.2 °F 32.0 °F 61% 29.90 in 10.0 mi SE 4.6 mph - N/A   Unknown
6:15 PM 44.6 °F 43.1 °F 32.0 °F 61% 29.91 in 10.0 mi SSE 3.5 mph - N/A   Unknown
6:35 PM 41.0 °F - 32.0 °F 70% 29.91 in 10.0 mi Calm Calm - N/A   Unknown
6:55 PM 41.0 °F - 32.0 °F 70% 29.93 in 10.0 mi Calm Calm - N/A   Unknown
7:15 PM 42.8 °F - 32.0 °F 66% 29.93 in 10.0 mi Calm Calm - N/A   Unknown
7:35 PM 39.2 °F - 32.0 °F 75% 29.93 in 10.0 mi Calm Calm - N/A   Unknown
7:55 PM 39.2 °F - 32.0 °F 75% 29.93 in 10.0 mi Calm Calm - N/A   Unknown
8:15 PM 37.4 °F - 32.0 °F 81% 29.93 in 10.0 mi Calm Calm - N/A   Unknown
8:35 PM 37.4 °F - 32.0 °F 81% 29.93 in 10.0 mi Calm Calm - N/A   Unknown
8:55 PM 35.6 °F - 32.0 °F 87% 29.93 in 10.0 mi Calm Calm - N/A   Unknown
9:15 PM 35.6 °F - 32.0 °F 87% 29.93 in 10.0 mi Calm Calm - N/A   Unknown
9:35 PM 35.6 °F - 32.0 °F 87% 29.93 in 10.0 mi Calm Calm - N/A   Unknown
9:55 PM 35.6 °F - 32.0 °F 87% 29.93 in 10.0 mi Calm Calm - N/A   Unknown
10:15 PM 35.6 °F - 32.0 °F 87% 29.93 in 10.0 mi Calm Calm - N/A   Unknown
10:35 PM 33.8 °F - 32.0 °F 93% 29.92 in 10.0 mi Calm Calm - N/A   Unknown
10:55 PM 33.8 °F - 32.0 °F 93% 29.92 in 10.0 mi Calm Calm - N/A   Unknown
11:15 PM 33.8 °F - 32.0 °F 93% 29.92 in 10.0 mi Calm Calm - N/A   Unknown
11:35 PM 33.8 °F - 32.0 °F 93% 29.92 in 10.0 mi Calm Calm - N/A   Unknown
11:55 PM 33.8 °F - 32.0 °F 93% 29.90 in 10.0 mi Calm Calm - N/A   Unknown